Weather History for Wadesboro, NC

Change the Weather History Date:

Monday, May 20, 2013

  Actual Average (KCLT) Record (KCLT)
Temperature  
Mean Temperature 74 °F 68 °F  
Max Temperature 80 °F 80 °F 95 °F (1964)
Min Temperature 67 °F 57 °F 40 °F (2002)
Degree Days  
Heating Degree Days 0 1  
Month to date heating degree days 44  
Since 1 July heating degree days 3376  
Cooling Degree Days 8 5  
Month to date cooling degree days 61  
Year to date cooling degree days 98  
Growing Degree Days 24 (Base 50)    
Moisture  
Dew Point 68 °F    
Average Humidity 89    
Maximum Humidity 98    
Minimum Humidity 63    
Precipitation  
Precipitation 0.78 in 0.10 in 3.81 in (1909)
Month to date precipitation 1.97  
Year to date precipitation 15.75  
Snow  
Snow 0.00 in 0.00 in 0.00 in ()
Month to date snowfall 0.0  
Since 1 July snowfall 4.3  
Snow Depth -    
Sea Level Pressure  
Sea Level Pressure 30.08 in    
Wind  
Wind Speed 2 mph (SSE)    
Max Wind Speed 12 mph    
Max Gust Speed -    
Visibility 7 miles    
Events Rain    
T = Trace of Precipitation, MM = Missing Value Source: NWS Daily Summary

Daily Weather History Graph

Daily Weather History Graph

Search for Another Location

Airport:

Trip Planner

Search our weather history database for the weather conditions in past years. The results will help you decide how hot, cold, wet, or windy it might be!

Date:

Astronomy

May. 20, 2013 Rise Set
Actual Time 6:13 AM EDT 8:21 PM EDT
Civil Twilight 5:44 AM EDT 8:49 PM EDT
Nautical Twilight 5:09 AM EDT 9:24 PM EDT
Astronomical Twilight 4:32 AM EDT 10:02 PM EDT
Moon 3:37 PM EDT (5/20) 2:55 AM EDT (5/20)
Length of Visible Light 15h 04m
Length of Day
14h 08m
Waxing Gibbous, 75% of the Moon is Illuminated
May 20
Waxing Gibbous
May 25
Full
May 31
Last Quarter
Jun 8
New
Jun 16
First Quarter

Hourly Weather History & Observations

Time (EDT) Temp. Heat Index Dew Point Humidity Pressure Visibility Wind Dir Wind Speed Gust Speed Precip Events Conditions
12:15 AM 68.5 °F - 67.6 °F 97% 30.10 in 2.0 mi Calm Calm - N/A   Overcast
12:35 AM 68.9 °F - 68.0 °F 97% 30.10 in 1.5 mi SSE 3.5 mph - N/A   Overcast
12:55 AM 68.7 °F - 67.8 °F 97% 30.09 in 0.8 mi SSE 5.8 mph - 0.41 in Rain Heavy Rain
1:15 AM 68.9 °F - 68.0 °F 97% 30.09 in 2.0 mi Calm Calm - 0.10 in Rain Rain
1:35 AM 68.5 °F - 67.6 °F 97% 30.09 in 5.0 mi Calm Calm - 0.14 in Rain Rain
1:55 AM 68.5 °F - 67.6 °F 97% 30.08 in 7.0 mi Calm Calm - 0.15 in Rain Light Rain
2:15 AM 68.4 °F - 67.5 °F 97% 30.08 in 7.0 mi Calm Calm - N/A   Overcast
2:35 AM 68.4 °F - 67.5 °F 97% 30.07 in 7.0 mi Calm Calm - N/A   Overcast
2:55 AM 68.4 °F - 67.5 °F 97% 30.06 in 5.0 mi Calm Calm - N/A   Overcast
3:15 AM 68.2 °F - 67.3 °F 97% 30.07 in 4.0 mi Calm Calm - N/A   Overcast
3:35 AM 68.4 °F - 67.6 °F 98% 30.06 in 3.0 mi Calm Calm - N/A Rain Light Rain
4:15 AM 68.4 °F - 67.6 °F 98% 30.07 in 3.0 mi Calm Calm - N/A   Overcast
4:35 AM 68.4 °F - 67.8 °F 98% 30.07 in 4.0 mi Calm Calm - 0.01 in   Overcast
4:55 AM 68.4 °F - 67.6 °F 98% 30.07 in 3.0 mi Calm Calm - 0.01 in   Overcast
5:35 AM 68.0 °F - 67.1 °F 97% 30.08 in 1.2 mi Calm Calm - N/A   Overcast
5:55 AM 67.8 °F - 67.1 °F 98% 30.08 in 1.5 mi Calm Calm - N/A   Overcast
6:15 AM 67.1 °F - 66.4 °F 98% 30.09 in 0.8 mi Calm Calm - N/A   Overcast
6:35 AM 68.0 °F - 67.3 °F 98% 30.10 in 3.0 mi Calm Calm - N/A   Overcast
6:55 AM 68.4 °F - 67.6 °F 98% 30.10 in 4.0 mi Calm Calm - N/A   Overcast
7:15 AM 68.5 °F - 68.0 °F 98% 30.10 in 4.0 mi Calm Calm - N/A   Overcast
7:35 AM 68.9 °F - 68.0 °F 97% 30.11 in 4.0 mi Calm Calm - N/A   Overcast
8:15 AM 69.3 °F - 68.5 °F 98% 30.12 in 4.0 mi Calm Calm - N/A   Mostly Cloudy
8:35 AM 69.8 °F - 69.1 °F 98% 30.13 in 5.0 mi Calm Calm - N/A   Overcast
8:55 AM 70.0 °F - 69.1 °F 97% 30.13 in 5.0 mi Calm Calm - N/A   Overcast
9:15 AM 70.2 °F - 69.3 °F 97% 30.13 in 7.0 mi Calm Calm - N/A   Overcast
9:35 AM 71.2 °F - 68.7 °F 92% 30.13 in 7.0 mi Calm Calm - N/A   Mostly Cloudy
9:55 AM 72.9 °F - 68.2 °F 85% 30.12 in 10.0 mi SW 3.5 mph - N/A   Overcast
10:15 AM 72.7 °F - 68.0 °F 85% 30.12 in 7.0 mi Calm Calm - N/A   Overcast
10:35 AM 73.2 °F - 68.2 °F 84% 30.12 in 10.0 mi Calm Calm - N/A   Overcast
10:55 AM 74.1 °F - 68.2 °F 82% 30.12 in 10.0 mi SW 3.5 mph - N/A   Overcast
11:35 AM 75.7 °F - 67.8 °F 76% 30.12 in 10.0 mi SW 3.5 mph - N/A   Overcast
11:55 AM 76.3 °F - 67.6 °F 74% 30.11 in 10.0 mi Calm Calm - N/A   Mostly Cloudy
12:15 PM 77.7 °F - 66.9 °F 69% 30.11 in 10.0 mi West 3.5 mph - N/A   Mostly Cloudy
12:35 PM 77.9 °F - 67.1 °F 69% 30.11 in 10.0 mi WNW 6.9 mph - N/A   Overcast
12:55 PM 78.1 °F - 67.1 °F 69% 30.10 in 10.0 mi WSW 5.8 mph - N/A   Mostly Cloudy
1:15 PM 79.0 °F - 66.6 °F 66% 30.08 in 10.0 mi West 5.8 mph - N/A   Scattered Clouds
1:35 PM 79.7 °F - 66.0 °F 63% 30.08 in 10.0 mi West 6.9 mph - N/A   Scattered Clouds
1:55 PM 80.4 °F 83.0 °F 67.8 °F 65% 30.07 in 10.0 mi West 3.5 mph - N/A   Clear
2:15 PM 79.9 °F - 66.7 °F 64% 30.06 in 10.0 mi West 4.6 mph - N/A   Clear
2:55 PM 79.3 °F - 66.9 °F 66% 30.06 in 10.0 mi WSW 5.8 mph - N/A   Mostly Cloudy
3:15 PM 72.7 °F - 67.8 °F 85% 30.05 in 4.0 mi Calm Calm - 0.15 in Rain Light Rain
3:35 PM 77.5 °F - 70.0 °F 77% 30.06 in 10.0 mi East 5.8 mph - 0.15 in   Mostly Cloudy
3:55 PM 76.5 °F - 70.9 °F 83% 30.06 in 10.0 mi SE 11.5 mph - 0.15 in   Scattered Clouds
4:15 PM 74.8 °F - 69.1 °F 82% 30.05 in 10.0 mi SE 9.2 mph - N/A   Mostly Cloudy
4:35 PM 73.0 °F - 69.4 °F 88% 30.06 in 7.0 mi SE 5.8 mph - 0.02 in Rain Light Rain
4:55 PM 72.9 °F - 69.4 °F 89% 30.06 in 10.0 mi East 5.8 mph - 0.02 in   Overcast
5:15 PM 72.5 °F - 69.8 °F 91% 30.06 in 10.0 mi East 6.9 mph - N/A   Overcast
5:35 PM 72.5 °F - 70.7 °F 94% 30.03 in 3.0 mi ESE 11.5 mph - 0.04 in Rain Light Rain
5:55 PM 73.6 °F - 71.4 °F 93% 30.04 in 7.0 mi SSE 6.9 mph - 0.04 in   Scattered Clouds
6:15 PM 73.4 °F - 70.7 °F 91% 30.03 in 10.0 mi SSE 5.8 mph - N/A   Clear
6:35 PM 74.3 °F - 70.7 °F 88% 30.03 in 10.0 mi SSE 4.6 mph - N/A   Scattered Clouds
6:55 PM 74.7 °F - 70.7 °F 87% 30.03 in 10.0 mi SE 4.6 mph - N/A   Scattered Clouds
7:15 PM 74.8 °F - 70.0 °F 85% 30.04 in 10.0 mi Calm Calm - N/A   Scattered Clouds
7:35 PM 74.5 °F - 70.2 °F 86% 30.03 in 10.0 mi SSE 3.5 mph - N/A   Scattered Clouds
7:55 PM 73.9 °F - 70.0 °F 87% 30.04 in 10.0 mi Calm Calm - N/A   Clear
8:15 PM 72.3 °F - 69.3 °F 90% 30.03 in 10.0 mi Calm Calm - N/A   Scattered Clouds
8:35 PM 72.5 °F - 69.4 °F 90% 30.05 in 10.0 mi Calm Calm - N/A   Scattered Clouds
8:55 PM 71.6 °F - 69.8 °F 94% 30.05 in 7.0 mi Calm Calm - N/A   Mostly Cloudy
9:15 PM 71.6 °F - 70.0 °F 95% 30.05 in 7.0 mi East 5.8 mph - N/A   Overcast
9:35 PM 70.9 °F - 69.4 °F 95% 30.05 in 10.0 mi ESE 5.8 mph - N/A   Overcast
9:55 PM 70.7 °F - 68.9 °F 94% 30.06 in 10.0 mi ESE 5.8 mph - N/A   Overcast
10:15 PM 70.2 °F - 68.5 °F 95% 30.07 in 10.0 mi Calm Calm - N/A   Overcast
10:35 PM 70.0 °F - 68.5 °F 95% 30.07 in 7.0 mi Calm Calm - N/A   Overcast
10:55 PM 69.8 °F - 68.5 °F 96% 30.06 in 7.0 mi SE 4.6 mph - N/A   Overcast
11:15 PM 69.4 °F - 68.2 °F 96% 30.06 in 5.0 mi Calm Calm - N/A   Overcast
11:35 PM 68.9 °F - 68.0 °F 97% 30.05 in 5.0 mi SE 3.5 mph - N/A   Overcast
11:55 PM 69.1 °F - 68.0 °F 96% 30.05 in 4.0 mi SSE 3.5 mph - N/A   Overcast